Stations météo

réclame
Mon MeteoGroup
Bologna/Borgo Panigale, Italie (16140): Température de l'air & dewpoint: 12.01.2019 13:00:00 - 18.01.2019 13:00:00 (CET)Bologna/Borgo Panigale, Italie (16140): Vitesse du vent: 12.01.2019 13:00:00 - 18.01.2019 13:00:00 (CET)Bologna/Borgo Panigale, Italie (16140): Direction du vent: 12.01.2019 13:00:00 - 18.01.2019 13:00:00 (CET)Bologna/Borgo Panigale, Italie (16140): reduced air pressure: 12.01.2019 13:00:00 - 18.01.2019 13:00:00 (CET)Bologna/Borgo Panigale, Italie (16140): visibility: 12.01.2019 13:00:00 - 18.01.2019 13:00:00 (CET)Bologna/Borgo Panigale, Italie (16140): Quantités de précipitations: 12.01.2019 13:00:00 - 18.01.2019 13:00:00 (CET)
Date & Time tt [°C] td [°C] ff [km/h] ff [knt] dd ppp [hPa] vv [km] rr [mm]
18.01.2019 13:00:00 7,6 4,9 8 4 ENE 1012,9 2,5 -
18.01.2019 12:00:00 7,0 5,0 4 2 - - 3,0 -
18.01.2019 11:00:00 7,0 5,0 2 1 - - 3,0 -
18.01.2019 10:00:00 5,5 4,1 5 3 NNW 1012,1 2,5 0,0
18.01.2019 09:00:00 4,0 3,0 4 2 - - 3,0 -
18.01.2019 08:00:00 5,0 3,0 5 3 W - 4,0 -
18.01.2019 07:00:00 5,7 4,4 13 7 WNW 1010,1 3,5 -
18.01.2019 06:00:00 5,0 4,0 8 4 WSW - 2,5 -
18.01.2019 05:00:00 5,0 4,0 11 6 W - 3,0 -
18.01.2019 04:00:00 4,9 4,0 11 6 W 1010,2 3,0 0,0
18.01.2019 03:00:00 5,0 4,0 16 9 W - 3,0 -
18.01.2019 02:00:00 5,0 3,0 11 6 W - 5 -
18.01.2019 01:00:00 4,7 2,9 9 5 WNW 1010,0 6 -
18.01.2019 00:00:00 5,0 3,0 5 3 WSW - 7 -
17.01.2019 23:00:00 5,0 3,0 9 5 W - 8 -
17.01.2019 22:00:00 5,3 2,9 11 6 W 1011,0 8 0,0
17.01.2019 21:00:00 6,0 3,0 5 3 WSW - 8 -
17.01.2019 20:00:00 6,0 4,0 5 3 WNW - 10 -
17.01.2019 19:00:00 6,7 4,2 4 2 NW 1011,3 10 -
17.01.2019 18:00:00 8,0 5,0 5 3 WNW - 10 -
17.01.2019 17:00:00 - - - - - - - -
17.01.2019 16:00:00 11,7 5,4 8 4 NW 1011,8 10 0,0
17.01.2019 15:00:00 13,0 6,0 13 7 N - 9 -
17.01.2019 14:00:00 13,0 6,0 9 5 NE - 10 -
17.01.2019 13:00:00 12,7 5,7 13 7 N 1013,0 10 -
17.01.2019 12:00:00 11,0 5,0 11 6 N - 10 -
17.01.2019 11:00:00 13,0 6,0 8 4 SSW - 10 -
17.01.2019 10:00:00 5,6 2,4 4 2 - 1015,2 10 0,0
17.01.2019 09:00:00 4,0 1,0 4 2 - - 10 -
17.01.2019 08:00:00 3,0 1,0 4 2 WSW - 10 -
17.01.2019 07:00:00 3,1 0,7 5 3 SW 1015,6 10 -
17.01.2019 06:00:00 4,0 1,0 5 3 WNW - 10 -
17.01.2019 05:00:00 5,0 2,0 5 3 N - 10 -
17.01.2019 04:00:00 5,0 2,0 5 3 ESE - 10 -
17.01.2019 03:00:00 5,0 3,0 8 4 ESE - 10 -
17.01.2019 02:00:00 5,0 2,0 2 1 - - 10 -
17.01.2019 01:00:00 3,9 1,3 2 1 - 1017,8 10 -
17.01.2019 00:00:00 3,0 0,0 4 2 - - 10 -
16.01.2019 23:00:00 2,0 0,0 2 1 - - 10 -
16.01.2019 22:00:00 3,6 0,8 2 1 - 1018,7 10 0,0
16.01.2019 21:00:00 3,0 -1,0 2 1 - - 10 -
16.01.2019 20:00:00 6,0 1,0 4 2 - - 10 -
16.01.2019 19:00:00 7,6 1,9 2 1 - 1018,6 10 -
16.01.2019 18:00:00 8,0 2,0 4 2 - - 10 -
16.01.2019 17:00:00 12,0 2,0 5 3 NNE - 10 -
16.01.2019 16:00:00 13,2 2,5 5 3 NNE 1018,4 10 0,0
16.01.2019 15:00:00 14,0 2,0 9 5 N - 10 -
16.01.2019 14:00:00 14,0 2,0 11 6 N - 10 -
16.01.2019 13:00:00 13,2 0,8 9 5 N 1019,4 10 -
16.01.2019 12:00:00 11,0 1,0 5 3 NNW - 10 -
16.01.2019 11:00:00 10,0 2,0 5 3 NNW - 10 -
16.01.2019 10:00:00 8,7 0,4 8 4 SW 1020,4 10 0,0
16.01.2019 09:00:00 5,0 -1,0 4 2 - - 10 -
16.01.2019 08:00:00 4,0 -1,0 16 9 SSW - 10 -
16.01.2019 07:00:00 3,6 -1,9 11 6 SSW 1019,8 10 -
16.01.2019 06:00:00 3,0 -2,0 15 8 SSW - 10 -
16.01.2019 05:00:00 3,0 -3,0 5 3 SW - 10 -
16.01.2019 04:00:00 2,1 -3,9 9 5 SW 1020,0 10 0,0
16.01.2019 03:00:00 0,0 -5,0 9 5 WSW - 10 -
16.01.2019 02:00:00 0,0 -5,0 8 4 NW - 10 -
16.01.2019 01:00:00 4,0 -5,0 13 7 SSW 1019,8 10 -
16.01.2019 00:00:00 5,0 -5,0 13 7 SSW - 10 -
15.01.2019 23:00:00 5,0 -5,0 13 7 SSW - 10 -
15.01.2019 22:00:00 4,3 -4,8 11 6 SSW 1019,9 10 0,0
15.01.2019 21:00:00 4,0 -5,0 5 3 WSW - 10 -
15.01.2019 20:00:00 4,0 -4,0 8 4 SW - 10 -
15.01.2019 19:00:00 4,9 -4,5 8 4 SSW 1018,8 10 -
15.01.2019 18:00:00 7,0 -6,0 5 3 S - 10 -
15.01.2019 17:00:00 12,0 -6,0 4 2 NNW - 10 -
15.01.2019 16:00:00 12,7 -5,8 5 3 NNW 1017,8 10 0,0
15.01.2019 15:00:00 13,0 -6,0 5 3 W - 10 -
15.01.2019 14:00:00 13,0 -5,0 8 4 W - 10 -
15.01.2019 13:00:00 12,6 -5,4 8 4 WNW 1018,2 60 -
15.01.2019 12:00:00 12,0 -5,0 8 4 W - 10 -
15.01.2019 11:00:00 9,0 -5,0 11 6 S - 10 -
15.01.2019 10:00:00 6,5 -4,7 16 9 SSW 1018,1 10 0,0
15.01.2019 09:00:00 4,0 -5,0 16 9 SSW - 10 -
15.01.2019 08:00:00 2,0 -5,0 9 5 SSW - 10 -
15.01.2019 07:00:00 2,2 -5,2 15 8 SSW 1016,2 10 -
15.01.2019 06:00:00 2,0 -5,0 13 7 S - 10 -
15.01.2019 05:00:00 2,0 -5,0 8 4 SSW - 10 -
15.01.2019 04:00:00 1,7 -5,5 8 4 S 1014,8 10 0,0
15.01.2019 03:00:00 4,0 -5,0 9 5 WSW - 10 -
15.01.2019 02:00:00 5,0 -6,0 9 5 SW - 10 -
15.01.2019 01:00:00 6,3 -5,4 15 8 W 1013,3 10 -
15.01.2019 00:00:00 6,0 -6,0 11 6 W - 10 -
14.01.2019 23:00:00 8,0 -6,0 18 10 W - 10 -
14.01.2019 22:00:00 7,5 -6,2 21 11 W 1009,4 10 0,0
14.01.2019 21:00:00 8,0 -6,0 21 11 W - 10 -
14.01.2019 20:00:00 9,0 -6,0 22 12 W - 10 -
14.01.2019 19:00:00 10,0 -5,5 21 11 W 1006,5 10 -
14.01.2019 18:00:00 12,0 -5,0 22 12 W - 10 -
14.01.2019 17:00:00 13,0 -3,0 22 12 WNW - 10 -
14.01.2019 16:00:00 14,7 -1,5 22 12 WNW 1004,3 10 0,0
14.01.2019 15:00:00 15,0 1,0 24 13 WNW - 10 -
14.01.2019 14:00:00 14,0 3,0 16 9 W - 10 -
14.01.2019 13:00:00 12,8 2,4 18 10 W 1004,4 10 -
14.01.2019 12:00:00 11,0 2,0 22 12 W - 10 -
14.01.2019 11:00:00 8,0 3,0 11 6 WSW - 10 -
14.01.2019 10:00:00 4,1 0,6 11 6 WSW 1004,9 8 0,0
14.01.2019 09:00:00 -1,0 -2,0 4 2 - - 6 -
14.01.2019 08:00:00 0,0 -2,0 9 5 ENE - 7 -
14.01.2019 07:00:00 -1,0 -2,8 5 3 - 1000,1 10 -
14.01.2019 06:00:00 0,0 -2,0 2 1 - - 10 -
14.01.2019 05:00:00 - - - - - - - -
14.01.2019 04:00:00 -1,0 -2,4 4 2 N 1000,4 - 0,0
14.01.2019 03:00:00 - - - - - - - -
14.01.2019 02:00:00 0,0 -1,0 4 2 - - 10 -
14.01.2019 01:00:00 1,0 -1,0 4 2 WSW 1000,8 10 -
14.01.2019 00:00:00 2,0 0,0 5 3 SW - 10 -
13.01.2019 23:00:00 3,0 0,0 4 2 SW - 10 -
13.01.2019 22:00:00 2,1 -0,6 5 3 N 1005,0 10 0,0
13.01.2019 21:00:00 2,0 -2,0 4 2 S - 10 -
13.01.2019 20:00:00 2,0 -1,0 4 2 - - 10 -
13.01.2019 19:00:00 2,3 -1,3 2 1 - 1007,4 10 -
13.01.2019 18:00:00 5,0 0,0 5 3 ENE - 10 -
13.01.2019 17:00:00 7,0 0,0 5 3 ENE - 10 -
13.01.2019 16:00:00 8,3 0,1 8 4 NE 1009,0 10 0,0
13.01.2019 15:00:00 9,0 1,0 8 4 NNE - 10 -
13.01.2019 14:00:00 10,0 0,0 8 4 NE - 10 -
13.01.2019 13:00:00 9,4 -0,9 5 3 N 1011,5 10 -
13.01.2019 12:00:00 6,0 -3,0 4 2 - - 10 -
13.01.2019 11:00:00 4,0 -4,0 5 3 NW - 10 -
13.01.2019 10:00:00 3,0 -3,6 5 3 N 1013,6 10 0,0
13.01.2019 09:00:00 -1,0 -4,0 5 3 WSW - 10 -
13.01.2019 08:00:00 -1,0 -5,0 4 2 - - 10 -
13.01.2019 07:00:00 -2,2 -5,2 9 5 WSW 1012,2 10 -
13.01.2019 06:00:00 -1,0 -5,0 4 2 WSW - 10 -
13.01.2019 05:00:00 - - - - - - - -
13.01.2019 04:00:00 -0,9 -4,4 5 3 WNW 1012,9 10 0,0
13.01.2019 03:00:00 -1,0 -4,0 4 2 - - 10 -
13.01.2019 02:00:00 -1,0 -4,0 4 2 ESE - 10 -
13.01.2019 01:00:00 -1,3 -4,6 2 1 - 1013,7 10 -
13.01.2019 00:00:00 -1,0 -4,0 4 2 - - 10 -
12.01.2019 23:00:00 -1,0 -4,0 4 2 N - 10 -
12.01.2019 22:00:00 -0,8 -4,9 4 2 NE 1014,7 10 0,0
12.01.2019 21:00:00 0,0 -7,0 2 1 - - 10 -
12.01.2019 20:00:00 0,0 -7,0 4 2 - - 10 -
12.01.2019 19:00:00 1,8 -8,0 2 1 - 1016,3 10 -
12.01.2019 18:00:00 3,0 -8,0 5 3 S - 10 -
12.01.2019 17:00:00 7,0 -9,0 4 2 - - 10 -
12.01.2019 16:00:00 8,1 -9,3 8 4 NW 1017,4 10 0,0
12.01.2019 15:00:00 8,0 -6,0 2 1 - - 10 -
12.01.2019 14:00:00 7,0 -6,0 8 4 NW - 10 -
12.01.2019 13:00:00 7,6 -7,6 5 3 WNW 1018,8 10 -

tt = Température de l'air
td = dewpoint
ff = Vitesse du vent
dd = Direction du vent
ppp = reduced air pressure
vv = visibility
rr = Quantités de précipitations

stations d'obs. à proximité